| time (UTC) | temp C | wind direction | speed KPH | gust KPH | rain 1hr cm | rain 24hr cm | rain mn cm | humidity % | barometer mb |
| 20260507213039 | 6 | 168 | 9.7 | 12.9 | 0.00 | 0.00 | 0.00 | 63 | 1010.2 |
| 20260507213008 | 6 | 194 | 9.7 | 14.5 | 0.00 | 0.00 | 0.00 | 63 | 1008.9 |
| 20260507212516 | 6 | 67 | 6.4 | 14.5 | 0.00 | 0.00 | 0.00 | 66 | 1010.1 |
| 20260507211539 | 5 | 85 | 11.3 | 14.5 | 0.00 | 0.00 | 0.00 | 69 | 1010.2 |
| 20260507211519 | 5 | 85 | 11.3 | 14.5 | 0.00 | 0.00 | 0.00 | 69 | 1009.0 |
| 20260507211038 | 5 | 89 | 11.3 | 14.5 | 0.00 | 0.00 | 0.00 | 72 | 1010.2 |
| 20260507210538 | 5 | 83 | 12.9 | 14.5 | 0.00 | 0.00 | 0.00 | 72 | 1010.3 |
| 20260507210038 | 5 | 88 | 12.9 | 14.5 | 0.00 | 0.00 | 0.00 | 71 | 1010.3 |
| 20260507210002 | 5 | 84 | 11.3 | 14.5 | 0.00 | 0.00 | 0.00 | 71 | 1009.2 |
| 20260507205528 | 5 | 87 | 11.3 | 20.9 | 0.00 | 0.00 | 0.00 | 75 | 1010.3 |
| 20260507205016 | 4 | 92 | 14.5 | 20.9 | 0.00 | 0.00 | 0.00 | 79 | 1010.4 |
| 20260507204516 | 4 | 87 | 12.9 | 16.1 | 0.00 | 0.00 | 0.00 | 79 | 1010.4 |
| 20260507204503 | 4 | 84 | 12.9 | 16.1 | 0.00 | 0.00 | 0.00 | 78 | 1009.3 |
| 20260507204027 | 4 | 81 | 11.3 | 14.5 | 0.00 | 0.00 | 0.00 | 78 | 1010.4 |
| 20260507203516 | 4 | 59 | 8.0 | 12.9 | 0.00 | 0.00 | 0.00 | 77 | 1010.5 |
| 20260507203016 | 3 | 59 | 12.9 | 12.9 | 0.00 | 0.00 | 0.00 | 78 | 1010.5 |
| 20260507203006 | 3 | 59 | 9.7 | 14.5 | 0.00 | 0.00 | 0.00 | 78 | 1009.4 |
| 20260507202016 | 3 | 79 | 9.7 | 12.9 | 0.00 | 0.00 | 0.00 | 78 | 1010.6 |
| 20260507201516 | 3 | 62 | 9.7 | 11.3 | 0.00 | 0.00 | 0.00 | 77 | 1010.6 |
| 20260507201508 | 3 | 62 | 8.0 | 9.7 | 0.00 | 0.00 | 0.00 | 76 | 1009.6 |
| 20260507201039 | 4 | 62 | 8.0 | 11.3 | 0.00 | 0.00 | 0.00 | 77 | 1010.6 |
| 20260507200516 | 4 | 62 | 8.0 | 11.3 | 0.00 | 0.00 | 0.00 | 76 | 1010.7 |
| 20260507200016 | 4 | 62 | 6.4 | 11.3 | 0.00 | 0.00 | 0.00 | 74 | 1010.7 |
| 20260507200012 | 4 | 62 | 6.4 | 9.7 | 0.00 | 0.00 | 0.00 | 73 | 1010.0 |
| 20260507195516 | 4 | 62 | 8.0 | 11.3 | 0.00 | 0.00 | 0.00 | 75 | 1010.7 |
| 20260507195038 | 4 | 62 | 8.0 | 11.3 | 0.00 | 0.00 | 0.00 | 74 | 1010.7 |
| 20260507194538 | 4 | 85 | 8.0 | 9.7 | 0.00 | 0.00 | 0.00 | 74 | 1010.8 |
| 20260507194504 | 4 | 85 | 6.4 | 9.7 | 0.00 | 0.00 | 0.00 | 73 | 1010.2 |
| 20260507194016 | 4 | 85 | 8.0 | 9.7 | 0.00 | 0.00 | 0.00 | 73 | 1010.8 |
| 20260507193538 | 4 | 85 | 6.4 | 8.0 | 0.00 | 0.00 | 0.00 | 74 | 1010.9 |
| 20260507193017 | 4 | 85 | 4.8 | 8.0 | 0.00 | 0.00 | 0.00 | 75 | 1010.9 |
| 20260507193004 | 4 | 85 | 4.8 | 6.4 | 0.00 | 0.00 | 0.00 | 74 | 1010.7 |
| 20260507192516 | 3 | 341 | 4.8 | 6.4 | 0.00 | 0.00 | 0.00 | 74 | 1011.0 |
| 20260507191506 | 3 | 341 | 1.6 | 4.8 | 0.00 | 0.00 | 0.00 | 74 | 1010.8 |
| 20260507191017 | 3 | 341 | 1.6 | 4.8 | 0.00 | 0.00 | 0.00 | 76 | 1011.2 |
| 20260507190516 | 3 | 341 | 1.6 | 3.2 | 0.00 | 0.00 | 0.00 | 76 | 1011.3 |
| 20260507190038 | 3 | 341 | 1.6 | 4.8 | 0.00 | 0.00 | 0.00 | 76 | 1011.4 |
| 20260507190010 | 3 | 341 | 0.0 | 4.8 | 0.00 | 0.00 | 0.00 | 75 | 1010.0 |
| 20260507185539 | 3 | 341 | 1.6 | 4.8 | 0.00 | 0.00 | 0.00 | 75 | 1011.4 |
| 20260507185016 | 3 | 341 | 3.2 | 6.4 | 0.00 | 0.00 | 0.00 | 76 | 1011.4 |
| 20260507184516 | 3 | 341 | 3.2 | 6.4 | 0.00 | 0.00 | 0.00 | 76 | 1011.4 |
| 20260507184016 | 3 | 341 | 3.2 | 4.8 | 0.00 | 0.00 | 0.00 | 77 | 1011.4 |
| 20260507183538 | 3 | 341 | 3.2 | 8.0 | 0.00 | 0.00 | 0.00 | 77 | 1011.4 |
| 20260507183016 | 3 | 341 | 4.8 | 8.0 | 0.00 | 0.00 | 0.00 | 77 | 1011.5 |
| 20260507183010 | 3 | 341 | 4.8 | 8.0 | 0.00 | 0.00 | 0.00 | 77 | 1010.2 |
| 20260507182516 | 3 | 341 | 6.4 | 8.0 | 0.00 | 0.00 | 0.00 | 77 | 1011.5 |
| 20260507182016 | 3 | 341 | 6.4 | 8.0 | 0.00 | 0.00 | 0.00 | 76 | 1011.6 |
| 20260507181516 | 3 | 341 | 6.4 | 9.7 | 0.00 | 0.00 | 0.00 | 76 | 1011.6 |
| 20260507181504 | 3 | 341 | 4.8 | 11.3 | 0.00 | 0.00 | 0.00 | 76 | 1010.5 |
| 20260507181038 | 3 | 341 | 8.0 | 9.7 | 0.00 | 0.00 | 0.00 | 76 | 1011.6 |
| 20260507180516 | 3 | 340 | 8.0 | 12.9 | 0.00 | 0.00 | 0.00 | 75 | 1011.6 |
| 20260507180006 | 3 | 340 | 8.0 | 14.5 | 0.00 | 0.00 | 0.00 | 73 | 1010.4 |
| 20260507175539 | 4 | 346 | 9.7 | 12.9 | 0.00 | 0.00 | 0.00 | 72 | 1011.6 |
| 20260507175016 | 4 | 334 | 4.8 | 8.0 | 0.00 | 0.00 | 0.00 | 72 | 1011.7 |
| 20260507174517 | 4 | 334 | 4.8 | 9.7 | 0.00 | 0.00 | 0.00 | 73 | 1011.7 |
| 20260507174514 | 4 | 334 | 3.2 | 9.7 | 0.00 | 0.00 | 0.00 | 72 | 1010.5 |
| 20260507174027 | 4 | 334 | 8.0 | 14.5 | 0.00 | 0.00 | 0.00 | 72 | 1011.8 |
| 20260507173516 | 4 | 334 | 8.0 | 14.5 | 0.00 | 0.00 | 0.00 | 73 | 1011.8 |
| 20260507173030 | 4 | 348 | 6.4 | 12.9 | 0.00 | 0.00 | 0.00 | 73 | 1010.4 |
| 20260507173016 | 4 | 348 | 8.0 | 11.3 | 0.00 | 0.00 | 0.00 | 74 | 1011.7 |
| 20260507172516 | 4 | 348 | 4.8 | 6.4 | 0.00 | 0.00 | 0.00 | 74 | 1011.8 |
| 20260507172038 | 3 | 348 | 1.6 | 4.8 | 0.00 | 0.00 | 0.00 | 78 | 1011.9 |
| 20260507171523 | 3 | 348 | 0.0 | 16.1 | 0.00 | 0.00 | 0.00 | 78 | 1010.8 |
| 20260507171516 | 3 | 348 | 1.6 | 11.3 | 0.00 | 0.00 | 0.00 | 79 | 1012.0 |
| 20260507171017 | 3 | 348 | 4.8 | 16.1 | 0.00 | 0.00 | 0.00 | 79 | 1012.0 |
| 20260507170528 | 3 | 360 | 12.9 | 16.1 | 0.00 | 0.00 | 0.00 | 78 | 1011.8 |
| 20260507170038 | 3 | 12 | 12.9 | 16.1 | 0.00 | 0.00 | 0.00 | 76 | 1011.9 |
| 20260507170005 | 3 | 9 | 12.9 | 17.7 | 0.00 | 0.00 | 0.00 | 75 | 1010.7 |
| 20260507165516 | 4 | 327 | 8.0 | 17.7 | 0.00 | 0.00 | 0.00 | 77 | 1011.9 |
| 20260507165016 | 4 | 5 | 14.5 | 17.7 | 0.00 | 0.00 | 0.00 | 75 | 1011.9 |
| 20260507164516 | 4 | 5 | 14.5 | 17.7 | 0.00 | 0.00 | 0.00 | 75 | 1012.0 |
| 20260507164502 | 4 | 347 | 16.1 | 19.3 | 0.00 | 0.00 | 0.00 | 75 | 1011.0 |
| 20260507164016 | 4 | 340 | 12.9 | 20.9 | 0.00 | 0.00 | 0.00 | 76 | 1012.0 |
| 20260507163516 | 4 | 339 | 16.1 | 20.9 | 0.00 | 0.00 | 0.00 | 73 | 1012.0 |
| 20260507163038 | 5 | 355 | 14.5 | 17.7 | 0.00 | 0.00 | 0.00 | 72 | 1012.0 |
| 20260507163007 | 5 | 350 | 14.5 | 19.3 | 0.00 | 0.00 | 0.00 | 73 | 1010.9 |
| 20260507162538 | 5 | 319 | 9.7 | 17.7 | 0.00 | 0.00 | 0.00 | 70 | 1012.1 |
| 20260507162016 | 5 | 336 | 14.5 | 17.7 | 0.00 | 0.00 | 0.00 | 69 | 1012.1 |
| 20260507161517 | 5 | 330 | 12.9 | 25.7 | 0.00 | 0.00 | 0.00 | 67 | 1012.1 |
| 20260507161504 | 5 | 329 | 14.5 | 27.4 | 0.00 | 0.00 | 0.00 | 67 | 1011.2 |
| 20260507160516 | 6 | 262 | 16.1 | 22.5 | 0.00 | 0.00 | 0.00 | 58 | 1012.2 |
| 20260507160004 | 5 | 274 | 16.1 | 33.8 | 0.00 | 0.00 | 0.00 | 62 | 1011.4 |
| 20260507155517 | 5 | 297 | 12.9 | 22.5 | 0.00 | 0.00 | 0.00 | 67 | 1012.2 |
| 20260507155016 | 6 | 346 | 8.0 | 19.3 | 0.00 | 0.00 | 0.00 | 64 | 1012.1 |
| 20260507154508 | 5 | 322 | 1.6 | 16.1 | 0.00 | 0.00 | 0.00 | 66 | 1011.8 |
| 20260507153049 | 6 | 323 | 8.0 | 16.1 | 0.00 | 0.00 | 0.00 | 67 | 1012.3 |
| 20260507153002 | 6 | 331 | 6.4 | 17.7 | 0.00 | 0.00 | 0.00 | 64 | 1012.2 |
| 20260507152527 | 5 | 257 | 9.7 | 16.1 | 0.00 | 0.00 | 0.00 | 62 | 1012.3 |
| 20260507152027 | 5 | 317 | 6.4 | 12.9 | 0.00 | 0.00 | 0.00 | 69 | 1012.3 |
| 20260507151517 | 5 | 320 | 8.0 | 12.9 | 0.00 | 0.00 | 0.00 | 68 | 1012.3 |
| 20260507151503 | 5 | 320 | 8.0 | 14.5 | 0.00 | 0.00 | 0.00 | 68 | 1012.0 |
| 20260507151039 | 5 | 351 | 6.4 | 11.3 | 0.00 | 0.00 | 0.00 | 69 | 1012.4 |
| 20260507150516 | 4 | 355 | 3.2 | 9.7 | 0.00 | 0.00 | 0.00 | 71 | 1012.4 |
| 20260507150040 | 4 | 5 | 6.4 | 16.1 | 0.00 | 0.00 | 0.00 | 72 | 1012.4 |
| 20260507150007 | 4 | 5 | 6.4 | 17.7 | 0.00 | 0.00 | 0.00 | 71 | 1011.5 |
| 20260507145550 | 4 | 334 | 12.9 | 16.1 | 0.00 | 0.00 | 0.00 | 69 | 1012.4 |
| 20260507145016 | 4 | 348 | 9.7 | 12.9 | 0.00 | 0.00 | 0.00 | 72 | 1012.4 |
| 20260507144518 | 4 | 355 | 6.4 | 9.7 | 0.00 | 0.00 | 0.00 | 70 | 1011.1 |
| 20260507144039 | 4 | 355 | 4.8 | 11.3 | 0.00 | 0.00 | 0.00 | 71 | 1012.4 |
| 20260507143538 | 4 | 355 | 8.0 | 12.9 | 0.00 | 0.00 | 0.00 | 71 | 1012.4 |
| 20260507143028 | 5 | 360 | 9.7 | 12.9 | 0.00 | 0.00 | 0.00 | 71 | 1012.4 |
| 20260507143010 | 5 | 5 | 9.7 | 14.5 | 0.00 | 0.00 | 0.00 | 71 | 1011.2 |
| 20260507142538 | 5 | 355 | 9.7 | 11.3 | 0.00 | 0.00 | 0.00 | 69 | 1012.4 |
| 20260507141517 | 5 | 299 | 8.0 | 14.5 | 0.00 | 0.00 | 0.00 | 61 | 1012.4 |
| 20260507141503 | 5 | 302 | 8.0 | 16.1 | 0.00 | 0.00 | 0.00 | 60 | 1011.1 |
| 20260507141017 | 5 | 326 | 6.4 | 16.1 | 0.00 | 0.00 | 0.00 | 60 | 1012.3 |
| 20260507140516 | 5 | 289 | 8.0 | 17.7 | 0.00 | 0.00 | 0.00 | 59 | 1012.4 |
| 20260507140038 | 5 | 238 | 12.9 | 17.7 | 0.00 | 0.00 | 0.00 | 60 | 1012.5 |
| 20260507140004 | 5 | 237 | 11.3 | 19.3 | 0.00 | 0.00 | 0.00 | 59 | 1011.3 |
| 20260507135016 | 5 | 223 | 6.4 | 14.5 | 0.00 | 0.00 | 0.00 | 61 | 1012.4 |
| 20260507134517 | 5 | 244 | 9.7 | 14.5 | 0.00 | 0.00 | 0.00 | 62 | 1012.4 |
| 20260507134507 | 5 | 269 | 9.7 | 16.1 | 0.00 | 0.00 | 0.00 | 61 | 1011.4 |
| 20260507134039 | 5 | 273 | 8.0 | 12.9 | 0.00 | 0.00 | 0.00 | 62 | 1012.5 |
| 20260507133007 | 5 | 206 | 3.2 | 11.3 | 0.00 | 0.00 | 0.00 | 65 | 1011.3 |
| 20260507132517 | 5 | 206 | 4.8 | 14.5 | 0.00 | 0.00 | 0.00 | 65 | 1012.4 |
| 20260507132039 | 5 | 259 | 11.3 | 14.5 | 0.00 | 0.00 | 0.00 | 65 | 1012.4 |
| 20260507131517 | 4 | 213 | 8.0 | 12.9 | 0.00 | 0.00 | 0.00 | 66 | 1012.4 |
| 20260507131512 | 4 | 215 | 8.0 | 14.5 | 0.00 | 0.00 | 0.00 | 66 | 1011.3 |
| 20260507130517 | 4 | 203 | 6.4 | 12.9 | 0.00 | 0.00 | 0.00 | 68 | 1012.5 |
| 20260507130039 | 4 | 189 | 8.0 | 11.3 | 0.00 | 0.00 | 0.00 | 69 | 1012.5 |
| 20260507130003 | 4 | 209 | 6.4 | 12.9 | 0.00 | 0.00 | 0.00 | 69 | 1011.4 |
| 20260507125039 | 3 | 217 | 6.4 | 11.3 | 0.00 | 0.00 | 0.00 | 72 | 1012.5 |
| 20260507124505 | 3 | 236 | 6.4 | 12.9 | 0.00 | 0.00 | 0.00 | 72 | 1011.3 |
| 20260507124016 | 3 | 229 | 8.0 | 11.3 | 0.00 | 0.00 | 0.00 | 73 | 1012.5 |
| 20260507123517 | 3 | 209 | 4.8 | 9.7 | 0.00 | 0.00 | 0.00 | 74 | 1012.5 |
| 20260507123007 | 3 | 226 | 4.8 | 11.3 | 0.00 | 0.00 | 0.00 | 74 | 1011.2 |
| 20260507122017 | 2 | 213 | 8.0 | 11.3 | 0.00 | 0.00 | 0.00 | 75 | 1012.4 |
| 20260507121517 | 2 | 221 | 6.4 | 11.3 | 0.00 | 0.00 | 0.00 | 76 | 1012.5 |
| 20260507121509 | 2 | 221 | 6.4 | 11.3 | 0.00 | 0.00 | 0.00 | 75 | 1011.2 |
| 20260507121050 | 2 | 207 | 6.4 | 11.3 | 0.00 | 0.00 | 0.00 | 76 | 1012.5 |
| 20260507120017 | 2 | 215 | 6.4 | 11.3 | 0.00 | 0.00 | 0.00 | 75 | 1012.4 |
| 20260507120012 | 2 | 217 | 6.4 | 11.3 | 0.00 | 0.00 | 0.00 | 75 | 1011.1 |
| 20260507115517 | 1 | 204 | 6.4 | 11.3 | 0.00 | 0.00 | 0.00 | 76 | 1012.4 |
| 20260507115039 | 1 | 211 | 6.4 | 11.3 | 0.00 | 0.00 | 0.00 | 77 | 1012.4 |
| 20260507114539 | 1 | 215 | 8.0 | 11.3 | 0.00 | 0.00 | 0.00 | 77 | 1012.3 |
| 20260507114506 | 1 | 212 | 6.4 | 11.3 | 0.00 | 0.00 | 0.00 | 77 | 1011.0 |
| 20260507114017 | 1 | 213 | 6.4 | 9.7 | 0.00 | 0.00 | 0.00 | 78 | 1012.3 |
| 20260507113017 | 0 | 216 | 6.4 | 9.7 | 0.00 | 0.00 | 0.00 | 78 | 1012.2 |
| 20260507113012 | 0 | 215 | 4.8 | 9.7 | 0.00 | 0.00 | 0.00 | 78 | 1011.0 |
| 20260507112517 | 0 | 211 | 8.0 | 9.7 | 0.00 | 0.00 | 0.00 | 79 | 1012.2 |
| 20260507111517 | 0 | 215 | 6.4 | 9.7 | 0.00 | 0.00 | 0.00 | 79 | 1012.2 |
| 20260507111509 | 0 | 215 | 4.8 | 9.7 | 0.00 | 0.00 | 0.00 | 79 | 1010.9 |
| 20260507111028 | 0 | 208 | 6.4 | 9.7 | 0.00 | 0.00 | 0.00 | 79 | 1012.2 |
| 20260507110539 | 0 | 211 | 6.4 | 9.7 | 0.00 | 0.00 | 0.00 | 79 | 1012.1 |
| 20260507110028 | 0 | 211 | 6.4 | 9.7 | 0.00 | 0.00 | 0.00 | 79 | 1012.1 |
| 20260507110012 | 0 | 211 | 6.4 | 9.7 | 0.00 | 0.00 | 0.00 | 78 | 1011.1 |
| 20260507105517 | 0 | 211 | 6.4 | 9.7 | 0.00 | 0.00 | 0.00 | 79 | 1012.1 |
| 20260507105017 | 0 | 213 | 6.4 | 9.7 | 0.00 | 0.00 | 0.00 | 79 | 1012.1 |
| 20260507104516 | 0 | 213 | 4.8 | 9.7 | 0.00 | 0.00 | 0.00 | 79 | 1011.5 |
| 20260507104017 | 0 | 213 | 6.4 | 9.7 | 0.00 | 0.00 | 0.00 | 80 | 1011.9 |
| 20260507103017 | 0 | 213 | 8.0 | 9.7 | 0.00 | 0.00 | 0.00 | 79 | 1011.9 |
| 20260507103004 | 0 | 213 | 8.0 | 9.7 | 0.00 | 0.00 | 0.00 | 79 | 1011.3 |
| 20260507102539 | 0 | 209 | 8.0 | 9.7 | 0.00 | 0.00 | 0.00 | 80 | 1011.9 |
| 20260507102017 | 0 | 209 | 4.8 | 9.7 | 0.00 | 0.00 | 0.00 | 80 | 1011.9 |
| 20260507101517 | 0 | 213 | 8.0 | 9.7 | 0.00 | 0.00 | 0.00 | 79 | 1011.9 |
| 20260507101512 | 0 | 197 | 6.4 | 9.7 | 0.00 | 0.00 | 0.00 | 79 | 1010.6 |
| 20260507100539 | 0 | 212 | 6.4 | 11.3 | 0.00 | 0.00 | 0.00 | 79 | 1012.0 |
| 20260507100009 | 0 | 207 | 4.8 | 11.3 | 0.00 | 0.00 | 0.00 | 78 | 1010.7 |
| 20260507095516 | 0 | 201 | 8.0 | 11.3 | 0.00 | 0.00 | 0.00 | 79 | 1012.0 |
| 20260507095039 | 0 | 198 | 6.4 | 11.3 | 0.00 | 0.00 | 0.00 | 79 | 1012.0 |
| 20260507094539 | 0 | 208 | 8.0 | 11.3 | 0.00 | 0.00 | 0.00 | 79 | 1012.0 |
| 20260507094512 | 0 | 205 | 6.4 | 11.3 | 0.00 | 0.00 | 0.00 | 78 | 1010.8 |
| 20260507094050 | 0 | 214 | 8.0 | 9.7 | 0.00 | 0.00 | 0.00 | 79 | 1012.0 |
| 20260507093517 | 0 | 214 | 8.0 | 9.7 | 0.00 | 0.00 | 0.00 | 79 | 1012.0 |
| 20260507093019 | 0 | 208 | 6.4 | 9.7 | 0.00 | 0.00 | 0.00 | 78 | 1011.4 |
| 20260507093017 | 0 | 208 | 8.0 | 9.7 | 0.00 | 0.00 | 0.00 | 78 | 1012.1 |
| 20260507091529 | 0 | 208 | 4.8 | 8.0 | 0.00 | 0.00 | 0.00 | 77 | 1011.6 |
| 20260507091517 | 0 | 208 | 6.4 | 8.0 | 0.00 | 0.00 | 0.00 | 77 | 1012.2 |
| 20260507091017 | 0 | 225 | 6.4 | 8.0 | 0.00 | 0.00 | 0.00 | 77 | 1012.1 |
| 20260507090517 | 0 | 211 | 4.8 | 8.0 | 0.00 | 0.00 | 0.00 | 77 | 1012.1 |
| 20260507090015 | 0 | 211 | 4.8 | 8.0 | 0.00 | 0.00 | 0.00 | 76 | 1011.6 |
| 20260507085517 | 0 | 211 | 6.4 | 8.0 | 0.00 | 0.00 | 0.00 | 77 | 1012.2 |
| 20260507085050 | 0 | 211 | 6.4 | 8.0 | 0.00 | 0.00 | 0.00 | 77 | 1012.2 |
| 20260507084517 | 0 | 211 | 4.8 | 8.0 | 0.00 | 0.00 | 0.00 | 77 | 1012.2 |
| 20260507084508 | 0 | 211 | 4.8 | 8.0 | 0.00 | 0.00 | 0.00 | 76 | 1010.9 |
| 20260507084017 | 0 | 211 | 6.4 | 8.0 | 0.00 | 0.00 | 0.00 | 77 | 1012.2 |
| 20260507083550 | 0 | 211 | 6.4 | 8.0 | 0.00 | 0.00 | 0.00 | 77 | 1012.2 |
| 20260507083017 | 0 | 211 | 6.4 | 8.0 | 0.00 | 0.00 | 0.00 | 76 | 1012.3 |
| 20260507083014 | 0 | 211 | 6.4 | 8.0 | 0.00 | 0.00 | 0.00 | 76 | 1010.9 |
| 20260507082517 | 0 | 211 | 6.4 | 8.0 | 0.00 | 0.00 | 0.00 | 76 | 1012.3 |
| 20260507081518 | 0 | 211 | 4.8 | 9.7 | 0.00 | 0.00 | 0.00 | 75 | 1011.0 |
| 20260507081039 | 0 | 221 | 6.4 | 9.7 | 0.00 | 0.00 | 0.00 | 75 | 1012.3 |
| 20260507080517 | 0 | 219 | 6.4 | 9.7 | 0.00 | 0.00 | 0.00 | 75 | 1012.3 |
| 20260507080028 | 0 | 225 | 6.4 | 9.7 | 0.00 | 0.00 | 0.00 | 75 | 1012.3 |
| 20260507080005 | 0 | 225 | 6.4 | 9.7 | 0.00 | 0.00 | 0.00 | 74 | 1011.4 |
| 20260507075539 | 0 | 225 | 6.4 | 9.7 | 0.00 | 0.00 | 0.00 | 75 | 1012.3 |
| 20260507075017 | 0 | 225 | 4.8 | 9.7 | 0.00 | 0.00 | 0.00 | 75 | 1012.4 |
| 20260507074539 | 0 | 225 | 6.4 | 9.7 | 0.00 | 0.00 | 0.00 | 75 | 1012.4 |
| 20260507074507 | 0 | 225 | 4.8 | 9.7 | 0.00 | 0.00 | 0.00 | 74 | 1012.0 |
| 20260507073517 | 0 | 225 | 6.4 | 8.0 | 0.00 | 0.00 | 0.00 | 74 | 1012.5 |
| 20260507073017 | 0 | 225 | 4.8 | 8.0 | 0.00 | 0.00 | 0.00 | 74 | 1012.5 |
| 20260507073003 | 0 | 225 | 4.8 | 8.0 | 0.00 | 0.00 | 0.00 | 73 | 1011.8 |
| 20260507072540 | 1 | 225 | 3.2 | 6.4 | 0.00 | 0.00 | 0.00 | 73 | 1012.5 |
| 20260507072017 | 1 | 225 | 4.8 | 6.4 | 0.00 | 0.00 | 0.00 | 73 | 1012.5 |
| 20260507071551 | 1 | 225 | 3.2 | 6.4 | 0.00 | 0.00 | 0.00 | 73 | 1012.5 |
| 20260507071504 | 1 | 225 | 1.6 | 8.0 | 0.00 | 0.00 | 0.00 | 72 | 1011.1 |
| 20260507071018 | 1 | 225 | 3.2 | 8.0 | 0.00 | 0.00 | 0.00 | 72 | 1012.5 |
| 20260507070539 | 1 | 225 | 6.4 | 8.0 | 0.00 | 0.00 | 0.00 | 72 | 1012.5 |
| 20260507070017 | 1 | 198 | 4.8 | 8.0 | 0.00 | 0.00 | 0.00 | 72 | 1012.5 |
| 20260507070008 | 1 | 198 | 3.2 | 8.0 | 0.00 | 0.00 | 0.00 | 72 | 1011.2 |
| 20260507065517 | 1 | 198 | 4.8 | 8.0 | 0.00 | 0.00 | 0.00 | 72 | 1012.6 |
| 20260507065017 | 1 | 211 | 4.8 | 9.7 | 0.00 | 0.00 | 0.00 | 72 | 1012.6 |
| 20260507064528 | 1 | 207 | 6.4 | 9.7 | 0.00 | 0.00 | 0.00 | 72 | 1012.7 |
| 20260507064506 | 1 | 207 | 4.8 | 9.7 | 0.00 | 0.00 | 0.00 | 71 | 1011.5 |
| 20260507064028 | 1 | 200 | 6.4 | 9.7 | 0.00 | 0.00 | 0.00 | 72 | 1012.8 |
| 20260507063539 | 1 | 207 | 6.4 | 9.7 | 0.00 | 0.00 | 0.00 | 72 | 1012.8 |
| 20260507063039 | 1 | 200 | 4.8 | 9.7 | 0.00 | 0.00 | 0.00 | 72 | 1012.8 |
| 20260507063006 | 1 | 200 | 3.2 | 9.7 | 0.00 | 0.00 | 0.00 | 71 | 1011.7 |
| 20260507062517 | 1 | 232 | 3.2 | 8.0 | 0.00 | 0.00 | 0.00 | 72 | 1012.8 |
| 20260507062017 | 2 | 199 | 6.4 | 8.0 | 0.00 | 0.00 | 0.00 | 71 | 1012.8 |
| 20260507061517 | 2 | 193 | 4.8 | 8.0 | 0.00 | 0.00 | 0.00 | 71 | 1012.8 |
| 20260507061502 | 2 | 193 | 4.8 | 8.0 | 0.00 | 0.00 | 0.00 | 70 | 1012.5 |
| 20260507061017 | 2 | 213 | 0.0 | 3.2 | 0.00 | 0.00 | 0.00 | 71 | 1012.8 |
| 20260507060539 | 2 | 213 | 0.0 | 6.4 | 0.00 | 0.00 | 0.00 | 70 | 1012.8 |
| 20260507060026 | 2 | 213 | 3.2 | 6.4 | 0.00 | 0.00 | 0.00 | 69 | 1012.9 |
| 20260507060004 | 2 | 194 | 3.2 | 6.4 | 0.00 | 0.00 | 0.00 | 68 | 1012.2 |
| 20260507055017 | 2 | 325 | 1.6 | 6.4 | 0.00 | 0.00 | 0.00 | 69 | 1012.9 |
| 20260507054539 | 2 | 325 | 1.6 | 6.4 | 0.00 | 0.00 | 0.00 | 69 | 1013.0 |
| 20260507054513 | 2 | 325 | 1.6 | 6.4 | 0.00 | 0.00 | 0.00 | 68 | 1011.9 |
| 20260507054017 | 2 | 325 | 0.0 | 4.8 | 0.00 | 0.00 | 0.00 | 70 | 1013.1 |
| 20260507053517 | 2 | 325 | 3.2 | 8.0 | 0.00 | 0.00 | 0.00 | 70 | 1013.2 |
| 20260507053040 | 2 | 350 | 4.8 | 6.4 | 0.00 | 0.00 | 0.00 | 72 | 1013.2 |
| 20260507053006 | 2 | 238 | 3.2 | 8.0 | 0.00 | 0.00 | 0.00 | 71 | 1011.9 |
| 20260507052539 | 2 | 238 | 4.8 | 8.0 | 0.00 | 0.00 | 0.00 | 71 | 1013.2 |
| 20260507052017 | 2 | 238 | 6.4 | 8.0 | 0.00 | 0.00 | 0.00 | 71 | 1013.3 |
| 20260507051517 | 2 | 238 | 4.8 | 8.0 | 0.00 | 0.00 | 0.00 | 71 | 1013.3 |
| 20260507051510 | 2 | 238 | 4.8 | 8.0 | 0.00 | 0.00 | 0.00 | 70 | 1012.0 |
| 20260507051040 | 2 | 238 | 4.8 | 8.0 | 0.00 | 0.00 | 0.00 | 70 | 1013.3 |
| 20260507050540 | 2 | 238 | 3.2 | 6.4 | 0.00 | 0.00 | 0.00 | 70 | 1013.2 |
| 20260507050017 | 2 | 238 | 4.8 | 6.4 | 0.00 | 0.00 | 0.00 | 70 | 1013.3 |
| 20260507050009 | 2 | 238 | 3.2 | 6.4 | 0.00 | 0.00 | 0.00 | 70 | 1012.1 |
| 20260507045517 | 2 | 238 | 4.8 | 6.4 | 0.00 | 0.00 | 0.00 | 71 | 1013.3 |
| 20260507045018 | 2 | 238 | 3.2 | 6.4 | 0.00 | 0.00 | 0.00 | 70 | 1013.3 |
| 20260507044518 | 2 | 238 | 4.8 | 6.4 | 0.00 | 0.00 | 0.00 | 70 | 1013.3 |
| 20260507044503 | 2 | 238 | 3.2 | 6.4 | 0.00 | 0.00 | 0.00 | 70 | 1012.4 |
| 20260507044029 | 2 | 238 | 4.8 | 6.4 | 0.00 | 0.00 | 0.00 | 70 | 1013.3 |
| 20260507043029 | 2 | 238 | 4.8 | 6.4 | 0.00 | 0.00 | 0.00 | 68 | 1013.3 |
| 20260507043009 | 2 | 238 | 3.2 | 6.4 | 0.00 | 0.00 | 0.00 | 67 | 1012.9 |
| 20260507042517 | 3 | 238 | 4.8 | 6.4 | 0.00 | 0.00 | 0.00 | 67 | 1013.4 |
| 20260507042018 | 3 | 238 | 4.8 | 6.4 | 0.00 | 0.00 | 0.00 | 67 | 1013.4 |
| 20260507041540 | 3 | 238 | 4.8 | 6.4 | 0.00 | 0.00 | 0.00 | 67 | 1013.5 |
| 20260507041506 | 3 | 238 | 3.2 | 6.4 | 0.00 | 0.00 | 0.00 | 67 | 1012.8 |
| 20260507041018 | 3 | 238 | 3.2 | 6.4 | 0.00 | 0.00 | 0.00 | 66 | 1013.4 |
| 20260507040540 | 3 | 238 | 3.2 | 6.4 | 0.00 | 0.00 | 0.00 | 65 | 1013.3 |
| 20260507040017 | 3 | 238 | 3.2 | 6.4 | 0.00 | 0.00 | 0.00 | 64 | 1013.4 |
| 20260507040012 | 3 | 238 | 3.2 | 6.4 | 0.00 | 0.00 | 0.00 | 64 | 1012.0 |
| 20260507035017 | 3 | 238 | 3.2 | 8.0 | 0.00 | 0.00 | 0.00 | 64 | 1013.3 |
| 20260507034517 | 3 | 238 | 4.8 | 8.0 | 0.00 | 0.00 | 0.00 | 64 | 1013.3 |
| 20260507034512 | 3 | 238 | 4.8 | 8.0 | 0.00 | 0.00 | 0.00 | 64 | 1012.0 |
| 20260507034017 | 3 | 238 | 4.8 | 6.4 | 0.00 | 0.00 | 0.00 | 65 | 1013.3 |
| 20260507033517 | 3 | 238 | 3.2 | 4.8 | 0.00 | 0.00 | 0.00 | 66 | 1013.3 |
| 20260507033028 | 3 | 238 | 3.2 | 4.8 | 0.00 | 0.00 | 0.00 | 66 | 1013.3 |
| 20260507033002 | 3 | 238 | 1.6 | 4.8 | 0.00 | 0.00 | 0.00 | 65 | 1012.0 |
| 20260507032539 | 3 | 238 | 1.6 | 4.8 | 0.00 | 0.00 | 0.00 | 65 | 1013.3 |
| 20260507032028 | 3 | 238 | 3.2 | 6.4 | 0.00 | 0.00 | 0.00 | 65 | 1013.4 |
| 20260507031503 | 3 | 238 | 1.6 | 6.4 | 0.00 | 0.00 | 0.00 | 64 | 1012.2 |
| 20260507031017 | 3 | 238 | 4.8 | 6.4 | 0.00 | 0.00 | 0.00 | 65 | 1013.5 |
| 20260507030517 | 3 | 238 | 4.8 | 9.7 | 0.00 | 0.00 | 0.00 | 65 | 1013.4 |
| 20260507030018 | 3 | 238 | 6.4 | 9.7 | 0.00 | 0.00 | 0.00 | 65 | 1013.5 |
| 20260507030006 | 3 | 238 | 4.8 | 9.7 | 0.00 | 0.00 | 0.00 | 65 | 1012.9 |
| 20260507025018 | 3 | 271 | 6.4 | 11.3 | 0.00 | 0.00 | 0.00 | 66 | 1013.5 |
| 20260507024518 | 3 | 247 | 6.4 | 11.3 | 0.00 | 0.00 | 0.00 | 66 | 1013.4 |
| 20260507024513 | 3 | 265 | 6.4 | 12.9 | 0.00 | 0.00 | 0.00 | 66 | 1012.8 |
| 20260507024017 | 3 | 252 | 8.0 | 11.3 | 0.00 | 0.00 | 0.00 | 67 | 1013.3 |
| 20260507023517 | 3 | 242 | 3.2 | 6.4 | 0.00 | 0.00 | 0.00 | 70 | 1013.2 |
| 20260507023017 | 3 | 284 | 4.8 | 6.4 | 0.00 | 0.00 | 0.00 | 71 | 1013.2 |
| 20260507023012 | 3 | 284 | 3.2 | 6.4 | 0.00 | 0.00 | 0.00 | 71 | 1012.3 |
| 20260507022539 | 3 | 284 | 3.2 | 6.4 | 0.00 | 0.00 | 0.00 | 72 | 1013.2 |
| 20260507022017 | 3 | 284 | 4.8 | 8.0 | 0.00 | 0.00 | 0.00 | 73 | 1013.2 |
| 20260507021503 | 3 | 284 | 4.8 | 11.3 | 0.00 | 0.00 | 0.00 | 74 | 1012.0 |
| 20260507021050 | 4 | 266 | 6.4 | 11.3 | 0.00 | 0.00 | 0.00 | 75 | 1013.1 |
| 20260507020539 | 4 | 296 | 9.7 | 11.3 | 0.00 | 0.00 | 0.00 | 76 | 1013.2 |
| 20260507020040 | 4 | 331 | 4.8 | 9.7 | 0.00 | 0.00 | 0.00 | 69 | 1013.1 |
| 20260507020008 | 4 | 311 | 3.2 | 6.4 | 0.00 | 0.00 | 0.00 | 69 | 1011.9 |
| 20260507015540 | 4 | 244 | 4.8 | 6.4 | 0.00 | 0.00 | 0.00 | 68 | 1013.1 |
| 20260507015040 | 4 | 220 | 3.2 | 6.4 | 0.00 | 0.00 | 0.00 | 68 | 1013.1 |
| 20260507014528 | 4 | 220 | 3.2 | 6.4 | 0.00 | 0.00 | 0.00 | 67 | 1013.0 |
| 20260507014515 | 4 | 220 | 3.2 | 6.4 | 0.00 | 0.00 | 0.00 | 67 | 1011.8 |
| 20260507014018 | 4 | 220 | 4.8 | 8.0 | 0.00 | 0.00 | 0.00 | 67 | 1013.0 |
| 20260507013519 | 4 | 214 | 4.8 | 8.0 | 0.00 | 0.00 | 0.00 | 67 | 1012.9 |
| 20260507013030 | 4 | 250 | 3.2 | 12.9 | 0.00 | 0.00 | 0.00 | 67 | 1011.8 |
| 20260507012551 | 4 | 250 | 6.4 | 12.9 | 0.00 | 0.00 | 0.00 | 68 | 1012.9 |
| 20260507012040 | 4 | 253 | 8.0 | 16.1 | 0.00 | 0.00 | 0.00 | 75 | 1012.9 |
| 20260507011540 | 4 | 296 | 11.3 | 16.1 | 0.00 | 0.00 | 0.00 | 76 | 1012.8 |
| 20260507011518 | 4 | 291 | 12.9 | 17.7 | 0.00 | 0.00 | 0.00 | 77 | 1012.1 |
| 20260507010551 | 4 | 296 | 9.7 | 19.3 | 0.00 | 0.00 | 0.00 | 77 | 1012.8 |
| 20260507010040 | 4 | 300 | 12.9 | 19.3 | 0.00 | 0.00 | 0.00 | 75 | 1012.8 |
| 20260507010004 | 4 | 295 | 14.5 | 20.9 | 0.00 | 0.00 | 0.00 | 74 | 1012.4 |
| 20260507005518 | 4 | 310 | 12.9 | 19.3 | 0.00 | 0.00 | 0.00 | 73 | 1012.8 |
| 20260507005018 | 4 | 269 | 9.7 | 12.9 | 0.00 | 0.00 | 0.00 | 67 | 1012.8 |
| 20260507004517 | 4 | 273 | 9.7 | 19.3 | 0.00 | 0.00 | 0.00 | 70 | 1012.7 |
| 20260507004508 | 4 | 270 | 9.7 | 22.5 | 0.00 | 0.00 | 0.00 | 71 | 1012.1 |
| 20260507004018 | 4 | 290 | 11.3 | 22.5 | 0.00 | 0.00 | 0.00 | 76 | 1012.7 |
| 20260507003013 | 4 | 282 | 16.1 | 24.1 | 0.00 | 0.00 | 0.00 | 75 | 1011.5 |
| 20260507002519 | 4 | 313 | 16.1 | 20.9 | 0.00 | 0.00 | 0.00 | 76 | 1012.6 |
| 20260507002018 | 4 | 293 | 14.5 | 22.5 | 0.00 | 0.00 | 0.00 | 74 | 1012.6 |
| 20260507001540 | 4 | 295 | 12.9 | 22.5 | 0.00 | 0.00 | 0.00 | 74 | 1012.6 |
| 20260507001518 | 4 | 285 | 14.5 | 24.1 | 0.00 | 0.00 | 0.00 | 74 | 1011.3 |
| 20260507001018 | 4 | 292 | 16.1 | 27.4 | 0.00 | 0.00 | 0.00 | 75 | 1012.6 |
| 20260507000540 | 4 | 296 | 17.7 | 27.4 | 0.00 | 0.00 | 0.00 | 72 | 1012.6 |
| 20260507000020 | 4 | 313 | 19.3 | 29.0 | 0.00 | 0.00 | 0.00 | 71 | 1011.2 |
| 20260507000017 | 4 | 306 | 19.3 | 27.4 | 0.00 | 0.00 | 0.00 | 71 | 1012.5 |
| 20260506235517 | 4 | 313 | 17.7 | 27.4 | 0.00 | 0.00 | 0.00 | 73 | 1012.5 |
| 20260506235018 | 4 | 294 | 17.7 | 25.7 | 0.00 | 0.00 | 0.00 | 75 | 1012.4 |
| 20260506234551 | 4 | 311 | 16.1 | 22.5 | 0.00 | 0.00 | 0.00 | 75 | 1012.4 |
| 20260506234506 | 4 | 298 | 17.7 | 24.1 | 0.00 | 0.00 | 0.00 | 75 | 1011.2 |
| 20260506233518 | 4 | 299 | 16.1 | 22.5 | 0.00 | 0.00 | 0.00 | 75 | 1012.4 |
| 20260506233040 | 4 | 300 | 14.5 | 24.1 | 0.00 | 0.00 | 0.00 | 76 | 1012.5 |
| 20260506233010 | 4 | 294 | 16.1 | 25.7 | 0.00 | 0.00 | 0.00 | 75 | 1011.4 |
| 20260506232529 | 4 | 301 | 19.3 | 24.1 | 0.00 | 0.00 | 0.00 | 75 | 1012.4 |
| 20260506231515 | 4 | 306 | 17.7 | 25.7 | 0.00 | 0.00 | 0.00 | 75 | 1011.5 |
| 20260506231018 | 4 | 283 | 17.7 | 29.0 | 0.00 | 0.00 | 0.00 | 74 | 1012.5 |
| 20260506230519 | 4 | 296 | 16.1 | 30.6 | 0.00 | 0.00 | 0.00 | 75 | 1012.5 |
| 20260506230003 | 4 | 279 | 20.9 | 30.6 | 0.00 | 0.00 | 0.00 | 75 | 1012.0 |
| 20260506225518 | 4 | 329 | 19.3 | 29.0 | 0.00 | 0.00 | 0.00 | 76 | 1012.4 |
| 20260506225018 | 4 | 284 | 19.3 | 29.0 | 0.00 | 0.00 | 0.00 | 75 | 1012.4 |
| 20260506224518 | 4 | 289 | 16.1 | 29.0 | 0.00 | 0.00 | 0.00 | 75 | 1012.4 |
| 20260506224503 | 4 | 265 | 17.7 | 30.6 | 0.00 | 0.00 | 0.00 | 74 | 1012.1 |
| 20260506224018 | 4 | 292 | 22.5 | 29.0 | 0.00 | 0.00 | 0.00 | 72 | 1012.4 |
| 20260506223518 | 4 | 287 | 17.7 | 29.0 | 0.00 | 0.00 | 0.00 | 73 | 1012.4 |
| 20260506223017 | 5 | 298 | 20.9 | 32.2 | 0.00 | 0.00 | 0.00 | 73 | 1012.4 |
| 20260506223008 | 5 | 294 | 20.9 | 33.8 | 0.00 | 0.00 | 0.00 | 72 | 1011.3 |
| 20260506222529 | 4 | 301 | 22.5 | 32.2 | 0.00 | 0.00 | 0.00 | 74 | 1012.3 |
| 20260506222018 | 4 | 285 | 20.9 | 32.2 | 0.00 | 0.00 | 0.00 | 73 | 1012.4 |
| 20260506221540 | 4 | 293 | 24.1 | 35.4 | 0.00 | 0.00 | 0.00 | 72 | 1012.4 |
| 20260506221512 | 4 | 289 | 25.7 | 37.0 | 0.00 | 0.00 | 0.00 | 72 | 1011.2 |
| 20260506221040 | 5 | 310 | 25.7 | 33.8 | 0.00 | 0.00 | 0.00 | 73 | 1012.4 |
| 20260506220518 | 5 | 280 | 25.7 | 35.4 | 0.00 | 0.00 | 0.00 | 70 | 1012.4 |
| 20260506220040 | 4 | 302 | 25.7 | 35.4 | 0.00 | 0.00 | 0.00 | 72 | 1012.3 |
| 20260506220004 | 4 | 309 | 27.4 | 37.0 | 0.00 | 0.00 | 0.00 | 72 | 1011.0 |
| 20260506215540 | 4 | 321 | 29.0 | 33.8 | 0.00 | 0.00 | 0.00 | 74 | 1012.2 |
| 20260506214507 | 4 | 309 | 20.9 | 30.6 | 0.00 | 0.00 | 0.00 | 73 | 1010.9 |
| 20260506214018 | 4 | 290 | 16.1 | 24.1 | 0.00 | 0.00 | 0.00 | 76 | 1012.1 |
| 20260506213518 | 4 | 307 | 17.7 | 32.2 | 0.00 | 0.00 | 0.00 | 76 | 1012.1 |